Weather History for Jonesville, VA

Change the Weather History Date:

Wednesday, May 2, 2012

  Actual Average (KLOZ) Record (KLOZ)
Temperature  
Mean Temperature 72 °F 61 °F  
Max Temperature 86 °F 73 °F 88 °F (1959)
Min Temperature 59 °F 49 °F 28 °F (1963)
Degree Days  
Heating Degree Days 0 5  
Month to date heating degree days 10  
Since 1 July heating degree days 4111  
Cooling Degree Days 8 1  
Month to date cooling degree days 2  
Year to date cooling degree days 28  
Growing Degree Days 22 (Base 50)    
Moisture  
Dew Point 62 °F    
Average Humidity 73    
Maximum Humidity 100    
Minimum Humidity 40    
Precipitation  
Precipitation 0.00 in 0.15 in 1.60 in (2010)
Month to date precipitation 0.30  
Year to date precipitation 15.65  
Sea Level Pressure  
Sea Level Pressure 30.14 in    
Wind  
Wind Speed 2 mph (WSW)    
Max Wind Speed 13 mph    
Max Gust Speed -    
Visibility 10 miles    
Events      
T = Trace of Precipitation, MM = Missing Value Source: NWS Daily Summary

Daily Weather History Graph

Daily Weather History Graph

Search for Another Location

Airport:

Trip Planner

Search our weather history database for the weather conditions in past years. The results will help you decide how hot, cold, wet, or windy it might be!

Date:

Astronomy

May. 02, 2012 Rise Set
Actual Time 6:37 AM EDT 8:22 PM EDT
Civil Twilight 6:09 AM EDT 8:50 PM EDT
Nautical Twilight 5:36 AM EDT 9:24 PM EDT
Astronomical Twilight 5:00 AM EDT 10:00 PM EDT
Moon 4:39 PM EDT 4:00 AM EDT
Length of Visible Light 14h 40m
Length of Day
13h 45m
Waxing Gibbous, 83% of the Moon is Illuminated
May 2
Waxing Gibbous
May 5
Full
May 12
Last Quarter
May 20
New
May 28
First Quarter

Hourly Weather History & Observations

Time (EDT) Temp. Heat Index Dew Point Humidity Pressure Visibility Wind Dir Wind Speed Gust Speed Precip Events Conditions
12:15 AM 62.6 °F - 59.0 °F 88% 30.10 in 10.0 mi Calm Calm - N/A   Unknown
12:35 AM 62.6 °F - 59.0 °F 88% 30.10 in 10.0 mi Calm Calm - N/A   Unknown
12:55 AM 59.0 °F - 59.0 °F 100% 30.10 in 10.0 mi Calm Calm - N/A   Unknown
1:15 AM 62.6 °F - 59.0 °F 88% 30.09 in 10.0 mi Calm Calm - N/A   Unknown
1:35 AM 59.0 °F - 59.0 °F 100% 30.09 in 10.0 mi Calm Calm - N/A   Unknown
1:55 AM 62.6 °F - 59.0 °F 88% 30.09 in 10.0 mi Calm Calm - N/A   Unknown
2:15 AM 60.8 °F - 59.0 °F 94% 30.09 in 10.0 mi Calm Calm - N/A   Mostly Cloudy
2:35 AM 59.0 °F - 59.0 °F 100% 30.09 in 9.0 mi Calm Calm - N/A   Overcast
3:15 AM 60.8 °F - 59.0 °F 94% 30.09 in 10.0 mi Calm Calm - N/A   Overcast
3:35 AM 60.8 °F - 59.0 °F 94% 30.10 in 10.0 mi Calm Calm - N/A   Overcast
3:55 AM 60.8 °F - 59.0 °F 94% 30.10 in 10.0 mi Calm Calm - N/A   Overcast
4:15 AM 60.8 °F - 59.0 °F 94% 30.10 in 10.0 mi Calm Calm - N/A   Overcast
4:35 AM 59.0 °F - 59.0 °F 100% 30.11 in 10.0 mi Calm Calm - N/A   Overcast
4:55 AM 60.8 °F - 59.0 °F 94% 30.11 in 10.0 mi Calm Calm - N/A   Overcast
5:15 AM 62.6 °F - 59.0 °F 88% 30.12 in 10.0 mi Calm Calm - N/A   Overcast
5:35 AM 62.6 °F - 59.0 °F 88% 30.12 in 10.0 mi Calm Calm - N/A   Overcast
5:55 AM 62.6 °F - 59.0 °F 88% 30.13 in 10.0 mi Calm Calm - N/A   Overcast
6:15 AM 62.6 °F - 59.0 °F 88% 30.14 in 10.0 mi Calm Calm - N/A   Overcast
6:35 AM 60.8 °F - 59.0 °F 94% 30.14 in 10.0 mi Calm Calm - N/A   Mostly Cloudy
6:55 AM 60.8 °F - 59.0 °F 94% 30.15 in 9.0 mi Calm Calm - N/A   Mostly Cloudy
7:15 AM 60.8 °F - 59.0 °F 94% 30.16 in 8.0 mi Calm Calm - N/A   Mostly Cloudy
7:35 AM 62.6 °F - 60.8 °F 94% 30.16 in 10.0 mi Calm Calm - N/A   Mostly Cloudy
7:55 AM 62.6 °F - 59.0 °F 88% 30.17 in 10.0 mi Calm Calm - N/A   Scattered Clouds
8:15 AM 64.4 °F - 60.8 °F 88% 30.17 in 10.0 mi Calm Calm - N/A   Clear
8:35 AM 66.2 °F - 60.8 °F 83% 30.18 in 10.0 mi Calm Calm - N/A   Partly Cloudy
8:55 AM 68.0 °F - 62.6 °F 83% 30.18 in 10.0 mi Calm Calm - N/A   Clear
9:15 AM 71.6 °F - 62.6 °F 73% 30.19 in 10.0 mi Calm Calm - N/A   Clear
9:35 AM 73.4 °F - 64.4 °F 73% 30.19 in 10.0 mi WSW 5.8 mph - N/A   Clear
9:55 AM 75.2 °F - 64.4 °F 69% 30.19 in 10.0 mi WSW 8.1 mph - N/A   Partly Cloudy
10:15 AM 75.2 °F - 64.4 °F 69% 30.19 in 10.0 mi WSW 8.1 mph - N/A   Partly Cloudy
10:35 AM 77.0 °F - 64.4 °F 65% 30.19 in 10.0 mi SW 9.2 mph - N/A   Clear
10:55 AM 77.0 °F - 64.4 °F 65% 30.20 in 10.0 mi WSW 10.4 mph - N/A   Clear
11:15 AM 78.8 °F - 64.4 °F 61% 30.19 in 10.0 mi SW 8.1 mph - N/A   Clear
11:35 AM 80.6 °F 82.3 °F 64.4 °F 58% 30.19 in 10.0 mi SW 8.1 mph - N/A   Clear
11:55 AM 80.6 °F 82.3 °F 64.4 °F 58% 30.19 in 10.0 mi WSW 9.2 mph - N/A   Clear
12:15 PM 82.4 °F 83.9 °F 64.4 °F 54% 30.19 in 10.0 mi WSW 10.4 mph - N/A   Clear
12:35 PM 82.4 °F 83.4 °F 62.6 °F 51% 30.18 in 10.0 mi SW 12.7 mph - N/A   Partly Cloudy
12:55 PM 82.4 °F 83.4 °F 62.6 °F 51% 30.17 in 10.0 mi West 8.1 mph - N/A   Scattered Clouds
1:15 PM 82.4 °F 83.4 °F 62.6 °F 51% 30.17 in 10.0 mi WSW 6.9 mph - N/A   Scattered Clouds
1:35 PM 82.4 °F 83.4 °F 62.6 °F 51% 30.16 in 10.0 mi WSW 8.1 mph - N/A   Scattered Clouds
1:55 PM 84.2 °F 85.0 °F 62.6 °F 48% 30.15 in 10.0 mi SSW 10.4 mph - N/A   Scattered Clouds
2:15 PM 84.2 °F 85.0 °F 62.6 °F 48% 30.15 in 10.0 mi West 6.9 mph - N/A   Scattered Clouds
2:35 PM 84.2 °F 85.0 °F 62.6 °F 48% 30.15 in 10.0 mi West 4.6 mph - N/A   Partly Cloudy
2:55 PM 84.2 °F 85.0 °F 62.6 °F 48% 30.14 in 10.0 mi West 6.9 mph - N/A   Clear
3:15 PM 84.2 °F 85.0 °F 62.6 °F 48% 30.14 in 10.0 mi WSW 8.1 mph - N/A   Clear
3:35 PM 84.2 °F 84.4 °F 60.8 °F 45% 30.13 in 10.0 mi WSW 5.8 mph - N/A   Partly Cloudy
3:55 PM 84.2 °F 84.4 °F 60.8 °F 45% 30.12 in 10.0 mi SW 6.9 mph - N/A   Scattered Clouds
4:15 PM 86.0 °F 86.1 °F 60.8 °F 43% 30.12 in 10.0 mi WSW 6.9 mph - N/A   Scattered Clouds
4:35 PM 84.2 °F 83.8 °F 59.0 °F 42% 30.11 in 10.0 mi WSW 3.5 mph - N/A   Partly Cloudy
4:55 PM 86.0 °F 86.1 °F 60.8 °F 43% 30.12 in 10.0 mi West 5.8 mph - N/A   Clear
5:15 PM 86.0 °F 85.4 °F 59.0 °F 40% 30.11 in 10.0 mi West 5.8 mph - N/A   Clear
5:35 PM 86.0 °F 85.4 °F 59.0 °F 40% 30.11 in 10.0 mi West 4.6 mph - N/A   Partly Cloudy
5:55 PM 86.0 °F 86.1 °F 60.8 °F 43% 30.11 in 10.0 mi WNW 3.5 mph - N/A   Clear
6:15 PM 84.2 °F 84.4 °F 60.8 °F 45% 30.11 in 10.0 mi West 3.5 mph - N/A   Clear
6:55 PM 82.4 °F 83.4 °F 62.6 °F 51% 30.11 in 10.0 mi Calm Calm - N/A   Clear
7:15 PM 82.4 °F 83.4 °F 62.6 °F 51% 30.11 in 10.0 mi Calm Calm - N/A   Clear
7:35 PM 80.6 °F 82.3 °F 64.4 °F 58% 30.11 in 10.0 mi Calm Calm - N/A   Clear
7:55 PM 77.0 °F - 66.2 °F 69% 30.11 in 10.0 mi Calm Calm - N/A   Clear
8:15 PM 75.2 °F - 66.2 °F 73% 30.12 in 10.0 mi Calm Calm - N/A   Clear
8:35 PM 73.4 °F - 66.2 °F 78% 30.12 in 10.0 mi Calm Calm - N/A   Clear
8:55 PM 71.6 °F - 66.2 °F 83% 30.13 in 10.0 mi Calm Calm - N/A   Clear
9:15 PM 69.8 °F - 64.4 °F 83% 30.13 in 10.0 mi Calm Calm - N/A   Clear
9:35 PM 69.8 °F - 64.4 °F 83% 30.14 in 10.0 mi Calm Calm - N/A   Unknown
9:55 PM 68.0 °F - 64.4 °F 88% 30.14 in 10.0 mi Calm Calm - N/A   Clear
10:15 PM 68.0 °F - 64.4 °F 88% 30.15 in 10.0 mi Calm Calm - N/A   Clear
10:35 PM 66.2 °F - 64.4 °F 94% 30.15 in 10.0 mi NNE 3.5 mph - N/A   Clear
10:55 PM 66.2 °F - 64.4 °F 94% 30.14 in 10.0 mi Calm Calm - N/A   Clear
11:15 PM 66.2 °F - 62.6 °F 88% 30.13 in 10.0 mi Calm Calm - N/A   Clear
11:55 PM 64.4 °F - 62.6 °F 94% 30.13 in 9.0 mi Calm Calm - N/A   Clear